(323844) = 2003 ED55 = 2005 SO81

Discovered at Kitt Peak on 2005-09-24 by Spacewatch.

Orbit

Orbit type: Main Belt

Note: WebGL enabled browser required.

epoch2023-09-13.0
epoch JD2460200.5
perihelion date2022-10-09.80573
perihelion JD2459862.30573
argument of perihelion (°)288.33676
ascending node (°)10.16530
inclination (°)13.19147
eccentricity0.0895376
perihelion distance (AU)2.4599399
Tisserand w.r.t. Jupiter3.3
ΔV w.r.t. Earth (km/sec)10.7
semimajor axis (AU)2.7018578
mean anomaly (°)75.05444
mean daily motion (°/day)0.22192700
aphelion distance (AU)2.944
period (years)4.44
P-vector [x]0.47276970
P-vector [y]-0.69749766
P-vector [z]-0.53850332
Q-vector [x]0.88026512
Q-vector [y]0.40175868
Q-vector [z]0.25243473
absolute magnitude16.58
phase slope0.15
uncertainty0
referenceMPEC 2024-B20
observations used207
oppositions11
arc length (days)7619
first opposition used2003
last opposition used2024
residual rms (arc-secs)0.65
perturbers coarse indicatorM-v
perturbers precise indicator003Ek
first observation date used2003-03-08.0
last observation date used2024-01-16.0
computer nameMPCLINUX
JD of orbit computation2456966.759373
perihelion JD uncertainty (days)2.9637E-04
argument of perihelion uncertainty (°)6.4257E-05
ascending node uncertainty (°)1.6079E-05
inclination uncertainty (°)9.1920E-06
eccentricity uncertainty 6.2852E-08
perihelion distance uncertainty (AU)1.6183E-07
Minimum Orbit Intersection Distances (in AU)
for orbit epoch: 2460200.5, reference: E2024-B20
Mercury2.01499
Venus1.74682
Earth1.48261
Mars1.08131
Jupiter2.2968
Saturn6.25301
Uranus15.5909
Neptune27.1383

Observations

213 total observations over interval: 2003 03 08.31175 – 2024 01 16.192198
These data are available for download (format description).

Date (UT) J2000 RA J2000 Dec Magn Location Ref
2003 03 08.31175 09 22 45.61 +29 36 41.7 22.4   695 – Kitt Peak MPS 74488
2003 03 08.34672 09 22 43.92 +29 36 36.3 22.5   695 – Kitt Peak MPS 74488
2003 03 08.35546 09 22 43.50 +29 36 35.0 21.3 V 695 – Kitt Peak MPS 74488
2003 03 08.37294 09 22 42.67 +29 36 32.3 21.6 V 695 – Kitt Peak MPS 74488
2003 03 08.38169 09 22 42.25 +29 36 31.0 21.6 V 695 – Kitt Peak MPS 74488
2003 03 08.39043 09 22 41.88 +29 36 29.8 21.6 V 695 – Kitt Peak MPS 74488
2003 03 10.29687 09 21 16.15 +29 31 33.5 21.6 V 695 – Kitt Peak MPS 74488
2003 03 10.31436 09 21 15.35 +29 31 30.4 21.0 V 695 – Kitt Peak MPS 74488
2005 08 27.48736 00 51 57.68 +00 56 50.2 20.9   644 – Palomar Mountain/NEAT MPS 150756
2005 08 27.49815 00 51 57.32 +00 56 50.9 21.0   644 – Palomar Mountain/NEAT MPS 150756
2005 08 27.50900 00 51 56.96 +00 56 51.0 20.6   644 – Palomar Mountain/NEAT MPS 150756
2005 09 14.30344 00 38 57.05 +00 59 37.2 20.7   705 – Apache Point MPS 211541
2005 09 14.30427 00 38 57.01 +00 59 37.1 20.2 V 705 – Apache Point MPS 211541
2005 09 22.40224 00 31 12.28 +00 54 59.4 20.1 R 644 – Palomar Mountain/NEAT MPS 146163
2005 09 22.42550 00 31 10.86 +00 54 57.8 19.5 R 644 – Palomar Mountain/NEAT MPS 146163
2005 09 22.44690 00 31 09.57 +00 54 57.4 19.8 R 644 – Palomar Mountain/NEAT MPS 146163
2005 09 24.25259 00 29 21.36 +00 53 42.5 20.0 V 691 – Steward Observatory, Kitt Peak-Spacewatch MPS 144212
2005 09 24.26995 00 29 20.28 +00 53 41.6 20.1 V 691 – Steward Observatory, Kitt Peak-Spacewatch MPS 144212
2005 09 24.28730 00 29 19.22 +00 53 41.0 20.0 V 691 – Steward Observatory, Kitt Peak-Spacewatch MPS 144212
2005 09 30.16944 00 23 21.59 +00 49 36.8 19.9 V 691 – Steward Observatory, Kitt Peak-Spacewatch MPS 144212
2005 09 30.18684 00 23 20.49 +00 49 36.3 19.9 V 691 – Steward Observatory, Kitt Peak-Spacewatch MPS 144212
2005 09 30.20431 00 23 19.41 +00 49 35.6 20.0 V 691 – Steward Observatory, Kitt Peak-Spacewatch MPS 144212
2005 10 07.24631 00 16 18.19 +00 45 44.7 19.3 V 703 – Catalina Sky Survey MPS 144212
2005 10 07.25399 00 16 17.76 +00 45 43.8 19.7 V 703 – Catalina Sky Survey MPS 144212
2005 10 07.26150 00 16 17.25 +00 45 45.0 20.2 V 703 – Catalina Sky Survey MPS 144212
2005 10 07.26903 00 16 16.89 +00 45 43.2 20.4 V 703 – Catalina Sky Survey MPS 144212
2005 10 26.23113 00 00 48.20 +00 51 10.7 21.1   705 – Apache Point MPS 211779
2005 10 26.23197 00 00 48.17 +00 51 10.8 20.5 V 705 – Apache Point MPS 211779
2008 02 13.42157 13 05 25.72 -03 33 01.2 21.1 V G96 – Mt. Lemmon Survey MPS 250429
2008 02 13.42891 13 05 25.69 -03 33 02.1 20.9 V G96 – Mt. Lemmon Survey MPS 250429
2008 02 13.43624 13 05 25.54 -03 33 03.0 21.4 V G96 – Mt. Lemmon Survey MPS 250429
2008 02 13.44360 13 05 25.51 -03 33 04.3 21.2 V G96 – Mt. Lemmon Survey MPS 250429
2008 03 05.35744 12 56 36.64 -03 50 52.1   691 – Steward Observatory, Kitt Peak-Spacewatch MPS 250429
2008 03 05.37510 12 56 35.89 -03 50 51.6   691 – Steward Observatory, Kitt Peak-Spacewatch MPS 250429
2008 03 05.39276 12 56 35.11 -03 50 51.2   691 – Steward Observatory, Kitt Peak-Spacewatch MPS 250429
2008 03 26.33381 12 38 35.95 -03 31 48.7 20.1 V G96 – Mt. Lemmon Survey MPS 244033
2008 03 26.34148 12 38 35.48 -03 31 48.0 20.1 V G96 – Mt. Lemmon Survey MPS 244033
2008 03 26.34913 12 38 35.01 -03 31 47.4 20.0 V G96 – Mt. Lemmon Survey MPS 244033
2008 03 26.35686 12 38 34.54 -03 31 46.6 20.3 V G96 – Mt. Lemmon Survey MPS 244033
2008 04 03.28414 12 30 43.27 -03 20 31.7 19.9 V G96 – Mt. Lemmon Survey MPS 244711
2008 04 03.29075 12 30 42.84 -03 20 31.4 20.1 V G96 – Mt. Lemmon Survey MPS 244711
2008 04 03.29726 12 30 42.44 -03 20 30.6 20.0 V G96 – Mt. Lemmon Survey MPS 244711
2008 05 03.20463 12 06 43.05 -03 03 42.1 20.8 V G96 – Mt. Lemmon Survey MPS 248975
2008 05 03.21088 12 06 42.87 -03 03 42.4 20.4 V G96 – Mt. Lemmon Survey MPS 248975
2008 05 03.21703 12 06 42.62 -03 03 42.2 20.3 V G96 – Mt. Lemmon Survey MPS 248975
2008 05 03.22313 12 06 42.44 -03 03 42.1 20.2 V G96 – Mt. Lemmon Survey MPS 248975
2010 11 02.44059 04 14 29.47 +36 05 06.0 21.2 V G96 – Mt. Lemmon Survey MPS 353772
2010 11 02.44587 04 14 29.18 +36 05 07.2 20.7 V G96 – Mt. Lemmon Survey MPS 353772
2010 11 02.45111 04 14 28.86 +36 05 08.0 20.3 V G96 – Mt. Lemmon Survey MPS 353772
2010 11 02.45645 04 14 28.50 +36 05 09.2 20.8 V G96 – Mt. Lemmon Survey MPS 353772
2010 11 11.566986 04 05 15.561 +36 29 58.78 20.80 r F51 – Pan-STARRS 1, Haleakala MPS 365537
2010 11 11.578239 04 05 14.786 +36 29 59.94 20.81 r F51 – Pan-STARRS 1, Haleakala MPS 365537
2010 11 16.474369 03 59 44.011 +36 36 48.77 20.56 i F51 – Pan-STARRS 1, Haleakala MPS 365537
2010 11 16.486738 03 59 43.151 +36 36 49.44 20.39 i F51 – Pan-STARRS 1, Haleakala MPS 365537
2010 11 17.27387 03 58 48.75 +36 37 27.8 19.7 V G96 – Mt. Lemmon Survey MPS 357422
2010 11 17.27964 03 58 48.32 +36 37 27.6 20.5 V G96 – Mt. Lemmon Survey MPS 357422
2010 11 17.28556 03 58 47.92 +36 37 27.9 21.1 V G96 – Mt. Lemmon Survey MPS 357422
2010 11 17.29145 03 58 47.46 +36 37 28.2 20.4 V G96 – Mt. Lemmon Survey MPS 357422
2012 01 22.45007 10 52 30.272 +21 42 58.62 21.6 w F51 – Pan-STARRS 1, Haleakala MPS 408796
2012 01 22.46423 10 52 29.814 +21 43 01.67 21.4 w F51 – Pan-STARRS 1, Haleakala MPS 408796
2012 01 22.47829 10 52 29.345 +21 43 05.06 21.5 w F51 – Pan-STARRS 1, Haleakala MPS 408796
2012 01 22.49230 10 52 28.870 +21 43 08.25 21.2 w F51 – Pan-STARRS 1, Haleakala MPS 408796
2012 03 23.20722 09 59 38.32 +23 25 27.5 21.4 V G96 – Mt. Lemmon Survey MPS 417220
2012 03 23.21528 09 59 38.00 +23 25 25.9 21.6 V G96 – Mt. Lemmon Survey MPS 417220
2012 03 23.22336 09 59 37.68 +23 25 24.4 21.0 V G96 – Mt. Lemmon Survey MPS 417220
2012 03 23.23146 09 59 37.35 +23 25 23.1 21.2 V G96 – Mt. Lemmon Survey MPS 417220
2014 09 22.28057 01 29 41.96 +11 23 47.7 20.7 V 691 – Steward Observatory, Kitt Peak-Spacewatch MPS 536309
2014 09 22.30095 01 29 40.92 +11 23 48.8 20.7 V 691 – Steward Observatory, Kitt Peak-Spacewatch MPS 536309
2014 09 22.32130 01 29 39.85 +11 23 50.2 20.3 V 691 – Steward Observatory, Kitt Peak-Spacewatch MPS 536309
2014 09 23.41635 01 28 44.812 +11 24 44.96 20.2 w F51 – Pan-STARRS 1, Haleakala MPS 536309
2014 09 23.42652 01 28 44.273 +11 24 45.56 20.3 w F51 – Pan-STARRS 1, Haleakala MPS 536309
2014 09 23.42724 01 28 44.233 +11 24 45.59 20.3 w F51 – Pan-STARRS 1, Haleakala MPS 536309
2014 09 23.43737 01 28 43.694 +11 24 46.10 20.2 w F51 – Pan-STARRS 1, Haleakala MPS 536309
2014 09 23.43810 01 28 43.653 +11 24 46.07 20.3 w F51 – Pan-STARRS 1, Haleakala MPS 536309
2014 09 23.44825 01 28 43.116 +11 24 46.60 20.3 w F51 – Pan-STARRS 1, Haleakala MPS 536309
2014 09 23.44899 01 28 43.084 +11 24 46.62 20.3 w F51 – Pan-STARRS 1, Haleakala MPS 536309
2014 09 26.34099 01 26 10.94 +11 26 30.6 20.0 V G96 – Mt. Lemmon Survey MPS 538705
2014 09 26.34424 01 26 10.76 +11 26 31.0 19.9 V G96 – Mt. Lemmon Survey MPS 538705
2014 09 26.34749 01 26 10.56 +11 26 30.9 20.0 V G96 – Mt. Lemmon Survey MPS 538705
2014 09 26.35074 01 26 10.39 +11 26 30.9 20.0 V G96 – Mt. Lemmon Survey MPS 538705
2014 09 29.52116 01 23 14.126 +11 27 27.16 20.2 w F51 – Pan-STARRS 1, Haleakala MPS 538705
2014 09 29.53259 01 23 13.454 +11 27 27.25 20.2 w F51 – Pan-STARRS 1, Haleakala MPS 538705
2014 09 29.54405 01 23 12.785 +11 27 27.30 20.2 w F51 – Pan-STARRS 1, Haleakala MPS 538705
2014 09 29.55548 01 23 12.108 +11 27 27.31 20.3 w F51 – Pan-STARRS 1, Haleakala MPS 538705
2014 09 30.26884 01 22 31.59 +11 27 30.9 20.4 V 691 – Steward Observatory, Kitt Peak-Spacewatch MPS 538705
2014 09 30.28915 01 22 30.38 +11 27 30.8 20.3 V 691 – Steward Observatory, Kitt Peak-Spacewatch MPS 538705
2014 09 30.30944 01 22 29.17 +11 27 30.8 20.2 V 691 – Steward Observatory, Kitt Peak-Spacewatch MPS 538705
2014 10 04.27117 01 18 36.07 +11 27 01.0 19.9 V 691 – Steward Observatory, Kitt Peak-Spacewatch MPS 538705
2014 10 04.29151 01 18 34.90 +11 27 00.9 20.4 V 691 – Steward Observatory, Kitt Peak-Spacewatch MPS 538705
2014 10 04.31184 01 18 33.64 +11 27 00.5 20.3 V 691 – Steward Observatory, Kitt Peak-Spacewatch MPS 538705
2014 10 14.25183 01 08 24.26 +11 20 27.6 19.7 V G96 – Mt. Lemmon Survey MPS 540328
2014 10 14.26124 01 08 23.67 +11 20 27.1 19.5 V G96 – Mt. Lemmon Survey MPS 540328
